Szeged, Hungary

4:18 PM CET on November 22, 2017 (GMT +0100)
Szeged

Weather History for LHUD - November, 2012

Change the Weather History Date:

Tuesday, November 6, 2012

  Actual Average (LRAR) Record (LRAR)
Temperature  
Mean Temperature 48 °F -  
Max Temperature 57 °F 47 °F 71 °F (2008)
Min Temperature 38 °F 34 °F 26 °F (2007)
Degree Days  
Heating Degree Days 18    
Moisture  
Dew Point 41 °F    
Average Humidity 79    
Maximum Humidity 100    
Minimum Humidity 41    
Precipitation  
Precipitation 0.00 in 0.05 in - ()
Sea Level Pressure  
Sea Level Pressure 29.98 in    
Wind  
Wind Speed 4 mph ()    
Max Wind Speed 12 mph    
Max Gust Speed -    
Visibility 6.6 miles    
Events Fog , Rain    
Averages and records for this station are not official NWS values.
T = Trace of Precipitation, MM = Missing Value Source: Averaged Metar Reports

Daily Weather History Graph

Daily Weather History Graph

Search for Another Location

Airport or City:

Trip Planner

Search our weather history database for the weather conditions in past years. The results will help you decide how hot, cold, wet, or windy it might be!

Date:

Astronomy

Nov. 06, 2012 Rise Set
Actual Time 6:28 AM CET 4:17 PM CET
Civil Twilight 5:56 AM CET 4:49 PM CET
Nautical Twilight 5:20 AM CET 5:25 PM CET
Astronomical Twilight 4:45 AM CET 6:00 PM CET
Moon 10:40 PM CET (11/6) 12:08 PM CET (11/6)
Length of Visible Light 10h 53m
Length of Day
9h 49m
Waning Gibbous, 56% of the Moon is Illuminated
Nov 6
Waning Gibbous
Nov 7
Last Quarter
Nov 13
New
Nov 20
First Quarter
Nov 28
Full

Hourly Weather History & Observations

Time (CET) Temp. Windchill Dew Point Humidity Pressure Visibility Wind Dir Wind Speed Gust Speed Precip Events Conditions
12:45 AM 42.8 °F 37.5 °F 41.0 °F 93% 29.83 in - West 9.2 mph - N/A   Clear
1:00 AM 44 °F - 40 °F 83% 29.83 in 12 mi West 8.9 mph - -   Partly Cloudy
1:45 AM 42.8 °F 38.6 °F 41.0 °F 93% 29.86 in - West 6.9 mph - N/A   Clear
2:45 AM 42.8 °F 39.3 °F 41.0 °F 93% 29.86 in - SW 5.8 mph - N/A   Clear
3:45 AM 42.8 °F 38.0 °F 41.0 °F 93% 29.89 in - SW 8.1 mph - N/A   Clear
4:45 AM 42.8 °F 40.1 °F 41.0 °F 93% 29.89 in - SW 4.6 mph - N/A   Clear
5:15 AM 41.0 °F 38.0 °F 41.0 °F 100% 29.92 in - WSW 4.6 mph - N/A   Clear
5:45 AM 41.0 °F 39.0 °F 39.2 °F 93% 29.92 in - WSW 3.5 mph - N/A   Clear
6:15 AM 41.0 °F - 39.2 °F 93% 29.92 in 5.0 mi West 2.3 mph - N/A   Scattered Clouds
6:45 AM 37.4 °F - 37.4 °F 100% 29.92 in 3.7 mi South 2.3 mph - N/A Fog Fog
7:00 AM 38 °F - 37 °F 97% 29.94 in 4 mi South 2.2 mph - - Fog Patches of Fog
7:15 AM 39.2 °F 37.0 °F 37.4 °F 93% 29.95 in 3.7 mi South 3.5 mph - N/A Fog Fog
7:45 AM 39.2 °F 37.0 °F 39.2 °F 100% 29.95 in 5.0 mi South 3.5 mph - N/A   Mostly Cloudy
8:15 AM 41.0 °F 39.0 °F 39.2 °F 93% 29.95 in - SSW 3.5 mph - N/A   Clear
8:45 AM 42.8 °F 41.1 °F 42.8 °F 100% 29.98 in - SSW 3.5 mph - N/A   Clear
9:15 AM 46.4 °F 44.3 °F 42.8 °F 87% 29.98 in - WSW 4.6 mph - N/A   Clear
9:45 AM 46.4 °F 43.5 °F 42.8 °F 87% 29.98 in - West 5.8 mph - N/A   Clear
10:15 AM 48.2 °F - 42.8 °F 82% 29.98 in - West 4.6 mph - N/A   Clear
10:45 AM 51.8 °F - 44.6 °F 76% 29.98 in - WNW 1.2 mph - N/A   Clear
11:15 AM 53.6 °F - 42.8 °F 67% 29.98 in 6.2 mi South 1.2 mph - N/A   Partly Cloudy
11:45 AM 55.4 °F - 41.0 °F 58% 29.98 in 6.2 mi NW 1.2 mph - N/A   Partly Cloudy
12:15 PM 55.4 °F - 39.2 °F 54% 29.98 in 6.2 mi North 2.3 mph - N/A   Partly Cloudy
12:45 PM 57.2 °F - 39.2 °F 51% 29.98 in 6.2 mi South 1.2 mph - N/A   Partly Cloudy
1:00 PM 57 °F - 40 °F 41% 29.97 in 37 mi South 2.2 mph - -   Partly Cloudy
1:15 PM 57.2 °F - 39.2 °F 51% 29.98 in 6.2 mi SW 2.3 mph - N/A   Partly Cloudy
1:45 PM 57.2 °F - 41.0 °F 55% 29.98 in 6.2 mi SW 3.5 mph - N/A   Partly Cloudy
2:15 PM 57.2 °F - 41.0 °F 55% 29.98 in 6.2 mi West 1.2 mph - N/A   Partly Cloudy
2:45 PM 57.2 °F - 39.2 °F 51% 29.98 in 6.2 mi SSW 3.5 mph - N/A   Scattered Clouds
3:15 PM 53.6 °F - 42.8 °F 67% 29.98 in 6.2 mi SSW 4.6 mph - N/A   Scattered Clouds
3:45 PM 51.8 °F - 42.8 °F 71% 30.01 in 6.2 mi SW 4.6 mph - N/A   Mostly Cloudy
4:15 PM 51.8 °F - 44.6 °F 76% 30.01 in - WSW 3.5 mph - N/A   Clear
4:45 PM 51.8 °F - 42.8 °F 71% 30.01 in - WSW 3.5 mph - N/A   Clear
5:14 PM 50.0 °F - 46.4 °F 87% 30.04 in 6.2 mi NW 1.2 mph - N/A Rain Light Rain
5:15 PM 50.0 °F - 46.4 °F 87% 30.01 in - WNW 2.3 mph - N/A   Clear
5:45 PM 50.0 °F - 44.6 °F 82% 30.04 in 6.2 mi NNW 2.3 mph - N/A   Mostly Cloudy
6:15 PM 50.0 °F - 44.6 °F 82% 30.04 in 6.2 mi NNW 3.5 mph - N/A Rain Light Rain
6:45 PM 48.2 °F - 44.6 °F 87% 30.04 in - West 3.5 mph - N/A   Clear
7:00 PM 49 °F - 45 °F 80% 30.05 in 19 mi West 4.5 mph - - Rain Light Rain
7:45 PM 50.0 °F - 41.0 °F 71% 30.06 in 6.2 mi NW 8.1 mph - N/A Rain Light Rain
8:15 PM 50.0 °F - 41.0 °F 71% 30.09 in 6.2 mi NW 6.9 mph - N/A Rain Light Rain
8:45 PM 48.2 °F - 41.0 °F 76% 30.09 in 6.2 mi NW 11.5 mph - N/A Rain Light Rain
9:45 PM 48.2 °F - 41.0 °F 76% 30.09 in 6.2 mi NW 6.9 mph - N/A Rain Light Rain
10:45 PM 46.4 °F 43.5 °F 41.0 °F 81% 30.12 in 6.2 mi West 5.8 mph - N/A   Overcast
11:45 PM 44.6 °F 41.4 °F 41.0 °F 87% 30.15 in - West 5.8 mph - N/A   Clear